Location: Siloam Springs
(36.1881°N, 94.5403°W)
Time: 05:30:39
(UTC-05:00)

CUBESAT XI-V - Pass Details

Date: 03 June 2024
Orbit: 657 x 679 km, 98.2° (Epoch: 16 June)

Event Time Altitude Azimuth Distance (km) Brightness Sun altitude
Exits shadow 04:47:10 12° 269° (W) 1,937 ? -13.1°
Drops below altitude 10° 04:48:49 10° 291° (WNW) 2,071 ? -12.9°
Sets 04:52:30 0° 322° (NW) 2,989 ? -12.3°
